NOAA NWS Hourly Roundups by Site

Regional Weather Roundup for Omaha, NE

To Select Another Site Choose from List

Select Site:  

000
ASUS43 KOAX 261913
RWRNE

WEATHER ROUNDUP FOR NEBRASKA
NATIONAL WEATHER SERVICE OMAHA NE
100 PM CST SAT NOV 26 2022

NOTES: SATELLITE DATA IS BEING USED TO AUGMENT CLOUD COVER ABOVE
       12000 FEET.
       "FAIR" INDICATES FEW OR NO CLOUDS BELOW 12,000 FEET WITH NO
       SIGNIFICANT WEATHER AND/OR OBSTRUCTIONS TO VISIBILITY.


NEZ001>004-019>022-054>056-262000-
NEBRASKA PANHANDLE

CITY           SKY/WX    TMP DP  RH WIND       PRES   REMARKS
SCOTTSBLUFF    SUNNY     60  21  22 N12       29.87F
ALLIANCE       MOSUNNY   54  24  31 N18G28    29.85F
CHADRON        MOSUNNY   55  25  31 NE18G26   29.90F
GORDON         MOSUNNY   53  25  33 N16       29.88R
KIMBALL        SUNNY     52  20  28 N20       29.87F
SIDNEY         SUNNY     54  22  28 N24G37    29.82F
$$

NEZ057>060-069>072-079>082-262000-
SOUTHWEST NEBRASKA

CITY           SKY/WX    TMP DP  RH WIND       PRES   REMARKS
NORTH PLATTE   PTSUNNY   53  21  28 SE3       29.76S
GRANT          FAIR      55  21  26 NW21G28   29.75F
IMPERIAL         N/A     57  20  23 N16       29.76F
LEXINGTON      MOSUNNY   54  18  24 W3        29.78S
MCCOOK         MOSUNNY   58  17  20 W7        29.77F
OGALLALA       MOSUNNY   61  25  25 N22G28    29.76F
$$

NEZ005>010-023>029-035>040-094-262000-
NORTH CENTRAL NEBRASKA

CITY           SKY/WX    TMP DP  RH WIND       PRES   REMARKS
VALENTINE      SUNNY     56  27  32 N24G35    29.80F
AINSWORTH      SUNNY     57  26  30 N23G29    29.78S
BROKEN BOW     PTSUNNY   58  21  24 NW12      29.75R
O`NEILL        PTSUNNY   55  23  29 NW21      29.73F
ORD            PTSUNNY   59  20  22 S5        29.73F
THEDFORD       MOSUNNY   56  27  32 N15G25    29.77F
$$

NEZ041-046>049-061>064-073>077-083>087-262000-
SOUTH CENTRAL NEBRASKA

CITY           SKY/WX    TMP DP  RH WIND       PRES   REMARKS
GRAND ISLAND   MOSUNNY   59  18  20 SW12      29.77F
AURORA         MOSUNNY   54  20  26 SW13      29.78F
HASTINGS       MOSUNNY   52  20  28 S12       29.78F
HEBRON         PTSUNNY   55  26  31 SW9G16    29.82F
HOLDREGE       MOSUNNY   53  17  24 SW9       29.76F
KEARNEY        MOSUNNY   57  20  23 S14       29.76F
YORK           PTSUNNY   57  19  23 SW12      29.78F
$$

NEZ011>018-030>034-042>045-262000-
NORTHEAST NEBRASKA

CITY           SKY/WX    TMP DP  RH WIND       PRES   REMARKS
NORFOLK        PTSUNNY   56  20  24 S13       29.74R
ALBION         PTSUNNY   54  19  26 SW6       29.75F
BLAIR          MOSUNNY   56  27  33 S15       29.81F
COLUMBUS       MOSUNNY   56  20  24 S18       29.77F
FREMONT        SUNNY     55  25  31 S12G18    29.80F
TEKAMAH        SUNNY     58  24  27 S24G31    29.77F
WAYNE          PTSUNNY   52  18  26 S20       29.74R
$$

NEZ050>053-065>068-078-088>093-262000-
SOUTHEAST NEBRASKA

CITY           SKY/WX    TMP DP  RH WIND       PRES   REMARKS
LINCOLN        PTSUNNY   55  30  38 SW10      29.81F
OMAHA EPPLEY   PTSUNNY   52  31  44 S15       29.83F
BEATRICE       PTSUNNY   53  32  45 S12       29.83F
FALLS CITY     PTSUNNY   53  36  52 S7        29.87F
NEBRASKA CITY  PTSUNNY   52  32  45 SW14      29.84F
PLATTSMOUTH    PTSUNNY   53  32  44 SW9       29.84F
$$

NEZ044-045-051>053-067-262000-
OMAHA AREA

CITY           SKY/WX    TMP DP  RH WIND       PRES   REMARKS
OMAHA EPPLEY   PTSUNNY   52  31  44 S15       29.83F
BLAIR          MOSUNNY   56  27  33 S15       29.81F
FREMONT        SUNNY     55  25  31 S12G18    29.80F
MILLARD        MOSUNNY   52  29  42 S8        29.83F
OFFUTT AFB     SUNNY     51  31  46 S12       29.85F
PLATTSMOUTH    PTSUNNY   53  32  44 SW9       29.84F
WAHOO          MOSUNNY   54  24  32 S15       29.82F
$$


 

View Past Reports for Omaha, NE.

Products Courtesy of NOAA-NWS
NWS Information Parsing Script by Ken True at Saratoga Weather - Script by SE Lincoln Weather.